Location: Newark
(49.3667°N, 21.6167°E)
Time: 22:54:32
(UTC+00:00)

Envisat - Pass Details

Date: 14 December 2019
Orbit: 764 x 766 km, 98.1° (Epoch: 21 January)

Event Time Altitude Azimuth Distance (km) Brightness Sun altitude
Rises 03:50:34 0° 31° (NNE) 3,244 6.5 -23.3°
Reaches altitude 10° 03:54:26 10° 61° (ENE) 2,311 6.2 -22.7°
Maximum altitude 03:56:30 12° 85° (E) 2,144 6.3 -22.4°
Drops below altitude 10° 03:58:34 10° 109° (ESE) 2,303 6.6 -22.0°
Sets 04:02:23 0° 139° (SE) 3,221 7.0 -21.4°
